Temp
-9 -9 -9 -9 -9 -10 -10 -10 -10 -10 -10 -9 -10 -10 -10 -9 -10 -11 -9 -10 -10 -10 -10 -10 -10 -9 -9 -8 -8 -8 -8 -8 -9 -9 -9 -9 -9 -9 -9 -9 -9 -10 -10 -10 -10 -10 -10 -10 -10
-9 -9 -9 -9 -10 -10 -10 -10 -10 -10 -10 -10 -10 -10 -10 -10 -10 -10 -10 -10 -10 -10 -10 -10 -9 -9 -8 -8 -8 -8 -8 -8 -9 -9 -9 -9 -9 -9 -10 -10 -10 -10 -10 -10 -10 -10 -10 -10 -10
-9 -9 -9 -10 -10 -10 -10 -9 -10 -10 -10 -10 -10 -10 -10 -10 -10 -10 -10 -10 -10 -10 -9 -9 -9 -8 -8 -8 -8 -8 -8 -8 -9 -9 -9 -9 -9 -9 -10 -10 -10 -10 -10 -10 -10 -10 -10 -10 -10
-9 -9 -9 -10 -11 -10 -10 -10 -10 -10 -10 -10 -10 -10 -10 -10 -9 -9 -9 -10 -10 -9 -9 -8 -8 -8 -8 -8 -8 -8 -8 -8 -9 -9 -9 -9 -9 -10 -10 -10 -10 -10 -10 -10 -10 -10 -10 -10 -10
-10 -9 -9 -10 -9 -11 -11 -10 -10 -10 -10 -10 -11 -9 -9 -9 -9 -9 -9 -9 -9 -9 -8 -8 -8 -8 -8 -8 -8 -8 -8 -9 -9 -9 -9 -9 -10 -10 -10 -10 -10 -10 -10 -10 -10 -10 -10 -10 -10
-9 -10 -9 -11 -10 -10 -10 -10 -11 -10 -11 -10 -10 -9 -9 -9 -9 -9 -9 -9 -9 -8 -8 -8 -8 -8 -8 -8 -8 -8 -9 -9 -9 -9 -9 -9 -10 -10 -9 -9 -10 -10 -10 -10 -10 -10 -10 -10 -11
-9 -9 -11 -10 -10 -11 -9 -10 -10 -11 -10 -9 -9 -9 -9 -8 -9 -9 -9 -8 -8 -8 -8 -8 -8 -8 -8 -8 -8 -9 -9 -9 -9 -9 -9 -9 -9 -9 -9 -9 -9 -10 -10 -10 -10 -10 -10 -10 -10
-9 -8 -11 -11 -11 -11 -9 -10 -9 -10 -11 -9 -10 -9 -8 -8 -9 -9 -8 -8 -8 -8 -8 -8 -8 -8 -8 -8 -8 -9 -9 -9 -9 -9 -9 -9 -9 -9 -9 -9 -9 -10 -10 -9 -9 -10 -10 -10 -10
-9 -10 -9 -10 -10 -11 -10 -10 -10 -10 -10 -10 -10 -9 -8 -8 -9 -8 -8 -8 -8 -8 -8 -8 -8 -8 -8 -8 -8 -9 -9 -9 -9 -9 -9 -9 -9 -9 -9 -9 -10 -9 -10 -9 -10 -10 -10 -11 -11
-9 -10 -11 -11 -11 -10 -9 -10 -11 -10 -10 -10 -10 -10 -8 -8 -8 -8 -8 -8 -8 -8 -8 -8 -8 -8 -8 -8 -8 -9 -9 -9 -9 -9 -9 -9 -9 -9 -9 -9 -9 -10 -9 -9 -10 -10 -10 -11 -11
-9 -10 -11 -11 -11 -10 -10 -10 -10 -10 -11 -12 -9 -9 -9 -8 -8 -8 -8 -8 -8 -8 -8 -8 -8 -8 -8 -9 -9 -9 -9 -9 -9 -9 -9 -9 -9 -9 -9 -10 -10 -10 -10 -10 -10 -10 -10 -10 -10
-9 -9 -9 -9 -10 -10 -10 -10 -10 -10 -10 -12 -9 -9 -9 -9 -8 -8 -8 -8 -8 -8 -8 -8 -8 -8 -9 -9 -8 -9 -9 -9 -9 -9 -9 -9 -9 -9 -10 -10 -10 -10 -10 -10 -10 -10 -11 -11 -11
-9 -9 -9 -9 -9 -10 -10 -10 -10 -9 -10 -10 -10 -10 -9 -8 -8 -8 -8 -8 -8 -8 -8 -8 -8 -8 -8 -9 -9 -9 -9 -9 -9 -9 -9 -9 -9 -9 -9 -9 -10 -10 -11 -11 -11 -11 -11 -11 -11
-9 -9 -9 -9 -9 -9 -9 -10 -10 -10 -10 -10 -10 -9 -9 -9 -9 -8 -9 -8 -8 -8 -8 -8 -8 -8 -9 -9 -9 -9 -9 -9 -9 -9 -9 -9 -10 -10 -10 -10 -10 -11 -11 -11 -11 -11 -11 -11 -12
-9 -9 -9 -9 -9 -9 -9 -9 -9 -10 -10 -10 -10 -9 -9 -9 -9 -9 -8 -8 -8 -8 -8 -8 -8 -9 -9 -9 -9 -9 -9 -9 -9 -9 -10 -10 -9 -10 -10 -10 -10 -10 -10 -11 -11 -12 -12 -12 -12
-9 -9 -9 -9 -10 -9 -9 -9 -9 -10 -10 -10 -10 -10 -10 -9 -9 -9 -9 -9 -9 -9 -8 -9 -8 -9 -9 -9 -9 -9 -9 -9 -9 -10 -10 -10 -10 -10 -10 -10 -10 -11 -11 -11 -12 -12 -12 -12 -13
-9 -10 -10 -10 -10 -10 -9 -9 -10 -10 -9 -10 -10 -10 -10 -10 -9 -9 -9 -9 -9 -9 -9 -9 -9 -9 -9 -9 -9 -9 -9 -9 -10 -10 -10 -10 -10 -10 -10 -10 -10 -11 -11 -11 -11 -11 -12 -12 -12
-10 -11 -11 -11 -11 -10 -10 -9 -10 -10 -10 -9 -10 -10 -9 -9 -9 -9 -10 -10 -9 -9 -9 -9 -9 -9 -9 -9 -9 -9 -9 -9 -10 -10 -10 -10 -10 -10 -11 -11 -11 -11 -11 -11 -11 -12 -13 -13 -13
-10 -10 -10 -10 -11 -11 -9 -9 -10 -10 -10 -10 -9 -10 -9 -9 -9 -9 -9 -10 -10 -10 -9 -9 -9 -9 -9 -9 -9 -9 -10 -10 -10 -10 -10 -10 -11 -11 -11 -11 -11 -11 -12 -11 -12 -12 -13 -13 -13
-10 -10 -10 -10 -10 -10 -10 -10 -10 -10 -10 -10 -10 -9 -10 -9 -10 -10 -9 -9 -10 -10 -9 -9 -9 -9 -10 -9 -10 -10 -10 -10 -10 -10 -10 -11 -11 -11 -11 -11 -11 -11 -12 -12 -12 -13 -13 -13 -14
-10 -10 -10 -10 -10 -10 -10 -9 -10 -11 -11 -10 -10 -10 -10 -10 -10 -9 -9 -9 -9 -9 -9 -9 -9 -9 -10 -10 -10 -10 -9 -10 -10 -10 -10 -10 -11 -11 -11 -12 -12 -12 -12 -13 -13 -13 -14 -14 -14
-11 -10 -10 -10 -10 -10 -10 -9 -11 -11 -11 -10 -10 -10 -10 -10 -10 -10 -10 -10 -10 -10 -10 -10 -10 -9 -9 -10 -10 -10 -9 -10 -10 -10 -10 -11 -11 -11 -12 -12 -12 -13 -13 -13 -14 -14 -14 -15 -15
-11 -11 -11 -11 -10 -10 -10 -10 -10 -11 -11 -10 -10 -10 -10 -9 -10 -10 -10 -10 -10 -10 -10 -10 -9 -9 -8 -9 -9 -9 -9 -10 -10 -10 -11 -11 -11 -12 -12 -12 -13 -13 -14 -14 -15 -14 -14 -15 -15
-11 -11 -11 -11 -10 -10 -10 -10 -9 -11 -11 -12 -11 -10 -10 -10 -10 -10 -9 -10 -9 -9 -9 -9 -9 -9 -9 -9 -9 -10 -10 -10 -10 -10 -11 -11 -11 -12 -12 -13 -13 -13 -14 -15 -14 -15 -15 -15 -16
-11 -11 -11 -11 -10 -10 -11 -11 -10 -11 -11 -11 -10 -10 -11 -10 -10 -9 -9 -9 -9 -9 -9 -9 -9 -9 -10 -10 -10 -10 -10 -10 -10 -10 -11 -11 -12 -12 -12 -13 -14 -14 -14 -15 -14 -15 -15 -16 -16
-11 -11 -11 -12 -12 -11 -11 -11 -11 -10 -11 -11 -11 -11 -10 -11 -10 -10 -9 -9 -9 -9 -9 -9 -10 -10 -10 -10 -10 -10 -10 -10 -10 -11 -11 -12 -12 -12 -13 -13 -14 -14 -14 -15 -15 -15 -16 -16 -16
-12 -12 -12 -12 -11 -11 -11 -11 -11 -11 -11 -10 -11 -11 -11 -10 -10 -10 -10 -10 -10 -9 -9 -10 -10 -10 -10 -10 -10 -10 -10 -11 -11 -11 -11 -12 -12 -12 -13 -14 -14 -14 -15 -15 -16 -16 -16 -16 -17
-12 -13 -13 -12 -11 -11 -11 -11 -11 -11 -11 -9 -9 -10 -10 -10 -10 -10 -10 -10 -10 -10 -10 -10 -10 -10 -10 -10 -10 -11 -11 -11 -11 -11 -11 -12 -12 -13 -14 -14 -15 -15 -15 -16 -16 -16 -16 -16 -17
-13 -13 -12 -12 -12 -12 -12 -10 -12 -12 -11 -11 -10 -10 -10 -10 -10 -10 -10 -9 -9 -9 -10 -10 -10 -10 -10 -11 -11 -11 -11 -10 -11 -11 -12 -12 -13 -14 -14 -15 -15 -16 -16 -16 -16 -16 -17 -17 -17
-12 -12 -13 -13 -13 -13 -12 -9 -11 -12 -11 -11 -11 -11 -10 -10 -10 -9 -9 -9 -10 -9 -10 -10 -10 -11 -11 -10 -11 -10 -11 -11 -12 -12 -13 -14 -14 -14 -15 -15 -16 -16 -16 -17 -16 -17 -17 -17 -17
Height
5858 5860 5861 5862 5865 5863 5861 5870 5869 5869 5868 5866 5866 5866 5851 5861 5860 5862 5861 5865 5864 5865 5868 5868 5868 5869 5870 5871 5871 5872 5873 5873 5873 5874 5873 5872 5872 5871 5871 5869 5869 5869 5868 5866 5866 5865 5865 5864 5863
5858 5860 5860 5862 5861 5859 5861 5858 5863 5860 5866 5867 5865 5863 5856 5857 5860 5861 5861 5862 5862 5864 5866 5867 5868 5869 5871 5872 5873 5874 5874 5874 5874 5874 5873 5873 5872 5871 5870 5869 5868 5868 5867 5866 5865 5864 5864 5862 5861
5858 5860 5861 5860 5859 5860 5861 5855 5862 5861 5864 5867 5863 5859 5860 5862 5862 5859 5859 5860 5862 5864 5866 5866 5868 5871 5873 5874 5874 5875 5874 5874 5874 5874 5873 5873 5871 5870 5870 5869 5868 5867 5867 5866 5865 5863 5862 5860 5858
5858 5860 5861 5863 5862 5861 5864 5862 5868 5861 5862 5866 5857 5856 5859 5860 5860 5859 5859 5860 5862 5864 5865 5867 5870 5872 5873 5874 5875 5875 5874 5874 5874 5874 5874 5872 5871 5870 5869 5868 5868 5867 5865 5864 5863 5861 5861 5859 5857
5858 5861 5862 5862 5863 5862 5864 5866 5865 5860 5855 5865 5853 5857 5859 5860 5859 5857 5858 5860 5861 5863 5866 5869 5870 5872 5873 5874 5874 5874 5874 5874 5874 5874 5873 5872 5871 5870 5869 5867 5866 5864 5863 5861 5860 5859 5858 5857 5856
5859 5860 5862 5866 5866 5867 5865 5865 5864 5851 5861 5862 5860 5857 5858 5860 5859 5858 5859 5860 5862 5865 5867 5869 5871 5872 5872 5873 5873 5873 5873 5873 5873 5872 5871 5870 5869 5868 5867 5865 5863 5862 5861 5860 5859 5857 5856 5855 5853
5859 5857 5860 5862 5865 5866 5865 5863 5863 5862 5861 5861 5858 5853 5857 5859 5859 5860 5862 5863 5864 5866 5868 5869 5871 5871 5871 5872 5872 5872 5872 5872 5871 5870 5869 5868 5867 5866 5864 5863 5861 5859 5859 5858 5857 5856 5854 5852 5851
5858 5859 5858 5865 5868 5869 5865 5863 5862 5861 5859 5857 5858 5853 5855 5859 5860 5861 5862 5864 5866 5867 5868 5869 5869 5869 5870 5870 5871 5871 5871 5870 5869 5868 5867 5866 5865 5864 5862 5861 5859 5858 5857 5856 5855 5853 5852 5850 5848
5857 5861 5862 5870 5871 5867 5863 5862 5861 5860 5859 5858 5859 5854 5857 5857 5859 5860 5862 5864 5865 5866 5866 5867 5867 5868 5868 5869 5869 5869 5868 5868 5866 5865 5864 5863 5862 5862 5860 5859 5857 5856 5854 5853 5852 5850 5849 5847 5844
5857 5858 5860 5864 5865 5862 5862 5861 5860 5860 5860 5859 5859 5858 5856 5857 5857 5859 5861 5862 5863 5864 5865 5865 5866 5866 5867 5867 5867 5866 5866 5864 5863 5862 5861 5861 5859 5858 5857 5854 5853 5852 5851 5850 5849 5847 5844 5841 5838
5855 5856 5854 5858 5859 5860 5860 5860 5859 5858 5859 5860 5856 5855 5854 5855 5856 5857 5859 5860 5860 5861 5862 5863 5864 5864 5865 5864 5864 5863 5863 5862 5861 5859 5858 5857 5856 5855 5853 5850 5851 5850 5848 5846 5844 5841 5839 5837 5834
5852 5853 5853 5854 5854 5856 5857 5857 5858 5857 5858 5856 5855 5854 5855 5854 5854 5855 5856 5857 5859 5859 5859 5860 5862 5862 5862 5860 5861 5860 5860 5859 5858 5856 5855 5853 5852 5851 5850 5849 5847 5845 5843 5841 5839 5838 5835 5833 5829
5849 5850 5850 5850 5851 5854 5853 5853 5854 5854 5855 5853 5853 5853 5852 5852 5852 5853 5854 5854 5854 5856 5857 5858 5858 5859 5859 5858 5858 5857 5857 5856 5855 5853 5851 5849 5848 5847 5845 5843 5842 5842 5839 5836 5834 5831 5829 5826 5822
5845 5845 5846 5847 5848 5849 5850 5851 5850 5853 5851 5850 5850 5851 5851 5850 5850 5851 5852 5852 5852 5852 5854 5855 5855 5855 5854 5854 5854 5853 5852 5851 5850 5849 5847 5846 5845 5842 5841 5838 5837 5836 5834 5830 5829 5827 5824 5821 5817
5841 5842 5842 5844 5845 5845 5845 5847 5848 5848 5846 5847 5846 5846 5846 5846 5846 5848 5848 5849 5849 5849 5849 5850 5852 5850 5849 5849 5848 5848 5848 5847 5846 5845 5843 5842 5839 5837 5835 5832 5831 5830 5826 5824 5822 5819 5815 5812 5808
5837 5838 5839 5840 5840 5840 5840 5843 5845 5843 5842 5842 5842 5843 5842 5842 5842 5842 5843 5844 5844 5845 5845 5845 5846 5845 5845 5845 5844 5844 5843 5842 5841 5839 5838 5837 5834 5832 5829 5827 5824 5821 5817 5817 5814 5811 5806 5803 5798
5833 5834 5834 5835 5835 5836 5834 5837 5837 5836 5837 5838 5838 5839 5838 5837 5838 5837 5837 5837 5838 5838 5838 5841 5840 5841 5840 5841 5840 5840 5840 5837 5836 5834 5833 5833 5829 5826 5822 5818 5817 5816 5813 5810 5805 5801 5797 5794 5790
5829 5832 5830 5833 5835 5831 5830 5829 5834 5833 5831 5834 5835 5834 5834 5833 5833 5832 5831 5831 5832 5831 5834 5835 5835 5835 5836 5836 5836 5836 5834 5833 5831 5828 5825 5824 5820 5817 5814 5812 5808 5807 5804 5799 5794 5792 5788 5785 5779
5826 5827 5827 5828 5831 5828 5825 5826 5827 5827 5829 5828 5828 5830 5828 5828 5828 5827 5827 5829 5828 5827 5828 5831 5832 5831 5831 5831 5831 5829 5827 5826 5825 5823 5820 5815 5813 5811 5808 5804 5801 5798 5793 5788 5785 5782 5778 5774 5770
5823 5823 5824 5824 5825 5823 5821 5821 5820 5822 5823 5823 5822 5823 5823 5823 5823 5822 5822 5824 5826 5825 5824 5825 5827 5829 5827 5826 5824 5822 5820 5820 5818 5815 5812 5808 5806 5804 5801 5797 5793 5790 5783 5781 5776 5771 5768 5764 5759
5819 5819 5819 5819 5819 5817 5817 5816 5816 5817 5817 5817 5818 5818 5818 5818 5817 5816 5819 5820 5821 5822 5821 5819 5818 5821 5824 5820 5815 5814 5814 5812 5811 5808 5806 5802 5799 5796 5793 5789 5784 5779 5774 5768 5766 5761 5758 5753 5748
5816 5815 5815 5814 5814 5814 5812 5811 5811 5812 5811 5811 5812 5813 5813 5814 5811 5814 5813 5814 5817 5816 5815 5814 5812 5809 5815 5816 5811 5806 5806 5805 5804 5800 5796 5793 5790 5787 5783 5778 5773 5766 5764 5761 5757 5752 5746 5741 5734
5813 5811 5810 5810 5808 5808 5811 5807 5809 5808 5808 5808 5807 5806 5807 5808 5809 5810 5810 5810 5811 5812 5812 5809 5807 5802 5804 5808 5806 5803 5799 5796 5794 5792 5789 5787 5783 5778 5774 5768 5762 5758 5754 5749 5745 5739 5734 5727 5722
5807 5807 5806 5804 5803 5802 5805 5802 5805 5804 5803 5805 5799 5801 5801 5802 5802 5803 5805 5805 5803 5804 5805 5803 5801 5798 5799 5796 5795 5793 5791 5787 5783 5781 5778 5775 5773 5769 5764 5757 5752 5748 5742 5737 5732 5726 5722 5714 5708
5802 5801 5800 5797 5797 5797 5798 5796 5800 5801 5798 5795 5794 5795 5796 5796 5796 5797 5797 5797 5797 5798 5797 5796 5795 5793 5791 5790 5788 5786 5783 5779 5776 5772 5768 5764 5761 5756 5750 5745 5741 5734 5732 5725 5721 5715 5709 5702 5695
5795 5796 5796 5791 5793 5792 5792 5791 5793 5795 5793 5793 5791 5789 5789 5792 5790 5789 5788 5788 5790 5789 5789 5789 5788 5786 5785 5783 5780 5777 5774 5769 5766 5762 5757 5752 5748 5744 5737 5734 5729 5726 5720 5714 5708 5702 5695 5687 5680
5795 5786 5788 5784 5785 5783 5786 5787 5784 5786 5784 5786 5785 5785 5784 5784 5783 5782 5780 5780 5780 5781 5781 5780 5779 5778 5775 5772 5769 5766 5762 5760 5755 5750 5745 5741 5736 5732 5730 5725 5718 5713 5706 5700 5694 5687 5681 5673 5666
5787 5786 5781 5779 5775 5773 5774 5777 5780 5775 5774 5774 5779 5780 5778 5777 5775 5775 5773 5771 5770 5770 5771 5771 5769 5767 5764 5761 5758 5755 5751 5748 5744 5740 5735 5730 5725 5720 5715 5710 5705 5700 5693 5686 5679 5673 5666 5659 5652
5777 5771 5777 5772 5771 5765 5762 5764 5776 5768 5766 5767 5769 5772 5771 5768 5766 5764 5763 5760 5759 5756 5758 5760 5758 5756 5753 5749 5746 5743 5739 5734 5730 5726 5722 5717 5712 5706 5701 5696 5690 5684 5678 5671 5664 5658 5651 5644 5637
5765 5766 5766 5761 5760 5756 5752 5747 5760 5762 5758 5761 5761 5764 5761 5759 5757 5755 5752 5752 5749 5747 5748 5749 5745 5746 5742 5739 5735 5731 5726 5722 5716 5712 5708 5703 5699 5694 5688 5681 5676 5669 5662 5656 5651 5645 5637 5629 5620
Wind_Speed
1 3 3 4 7 7 15 7 14 16 17 10 6 8 28 10 12 16 14 15 5 8 8 7 10 11 12 14 13 10 8 7 6 7 8 8 8 9 9 11 10 11 12 13 13 13 15 16 18
2 3 6 5 7 9 19 14 15 18 2 3 6 11 20 16 14 17 17 11 6 8 8 9 11 13 15 13 10 9 7 7 6 6 6 7 7 9 10 10 11 12 13 14 15 17 19 20 21
3 6 6 8 4 10 15 4 9 10 10 8 9 16 13 13 13 14 12 7 5 11 12 14 15 16 13 10 8 6 5 5 5 5 6 7 8 10 11 12 12 12 12 13 15 16 18 20 23
5 10 12 3 10 4 8 13 14 17 10 6 13 18 6 13 11 9 7 7 10 13 15 17 16 14 10 7 5 3 1 3 4 5 6 7 9 10 10 10 11 11 13 14 16 18 20 21 23
10 8 13 8 5 2 4 6 11 15 6 4 16 11 11 11 9 6 7 9 12 15 19 18 15 11 9 7 4 1 3 4 4 6 8 10 9 9 10 11 12 13 15 16 19 21 22 23 24
11 14 13 5 9 16 17 14 11 13 8 5 14 11 10 9 6 4 7 11 14 19 19 16 13 11 10 7 4 4 5 5 7 9 9 11 11 10 12 13 14 16 18 20 21 23 24 25 26
10 20 5 5 6 14 15 10 13 12 11 9 11 15 2 7 5 5 7 12 16 17 15 13 12 11 8 6 5 6 6 8 9 11 12 12 13 12 14 16 17 19 19 21 24 26 27 27 28
9 10 9 10 11 11 8 9 12 11 13 7 12 15 6 6 4 5 8 15 14 12 10 11 11 10 8 7 8 7 7 10 11 13 13 14 14 14 15 16 18 19 19 22 25 27 28 29 31
8 7 8 5 10 16 14 14 11 14 16 10 13 16 5 7 5 7 13 15 13 11 12 11 10 8 8 9 8 9 11 12 12 14 15 16 16 15 17 18 19 19 19 22 25 27 27 28 29
9 14 1 12 21 27 14 13 12 12 13 16 15 12 9 9 7 10 14 15 14 14 14 11 10 8 8 10 12 12 14 12 14 15 16 16 16 16 19 21 20 20 19 22 25 26 29 30 33
10 15 13 14 31 24 18 14 15 11 5 14 17 16 14 13 12 13 16 15 16 16 14 13 10 8 9 11 12 13 14 15 15 15 14 17 17 19 21 24 24 24 23 24 27 29 32 35 35
16 16 19 18 22 19 19 17 16 15 11 17 16 18 15 16 16 15 15 15 16 16 15 13 12 11 13 15 12 14 13 16 15 15 19 20 21 23 23 24 24 24 25 26 29 30 34 36 38
18 19 21 20 22 18 21 19 17 17 16 20 17 16 19 19 20 17 17 16 19 18 17 16 17 18 18 16 14 14 14 15 17 19 21 24 26 27 27 28 27 26 27 30 32 34 35 38 42
18 22 23 23 23 21 23 20 23 16 20 22 22 19 18 22 24 21 18 18 21 21 19 19 20 22 22 18 15 16 16 20 21 23 25 26 28 28 29 30 30 31 32 33 36 38 41 43 44
16 19 21 23 23 24 25 23 20 20 24 23 23 21 21 22 25 23 23 21 20 22 21 20 19 22 22 20 18 18 21 23 24 26 28 29 29 29 30 31 30 31 34 36 38 40 43 46 49
16 16 18 18 24 26 28 22 20 23 25 24 23 23 23 20 25 25 27 25 25 24 22 22 21 21 20 19 20 21 23 24 28 30 30 31 32 32 36 34 34 34 38 38 41 43 47 51 51
12 12 17 17 20 25 29 23 20 28 25 22 24 22 22 26 23 24 25 28 28 26 26 22 22 18 19 20 21 23 24 29 31 33 33 32 35 36 39 39 38 39 43 44 46 47 50 54 55
5 11 15 13 15 24 24 27 21 28 31 27 26 27 24 26 24 24 24 25 25 28 25 22 21 19 21 21 23 25 29 32 32 34 36 36 38 40 41 43 43 43 45 46 48 50 53 56 56
15 15 17 17 15 28 30 22 27 29 30 32 29 26 29 26 25 25 25 23 24 26 22 19 20 23 23 24 25 31 34 34 34 36 38 41 42 42 45 47 45 47 49 50 52 55 57 59 57
13 17 17 19 23 28 28 22 24 24 24 29 33 29 28 27 26 25 25 21 23 24 24 23 23 21 25 27 30 34 37 36 38 40 42 44 45 46 47 48 48 50 53 54 56 58 59 60 57
15 16 17 19 21 23 20 23 18 18 22 27 27 27 28 27 28 30 25 23 24 25 28 29 30 24 23 29 36 39 38 38 40 42 44 47 49 49 49 48 51 54 54 58 57 61 62 60 59
15 17 17 19 23 21 20 20 15 13 21 20 21 24 27 27 34 28 29 27 26 29 31 32 33 32 24 29 35 42 41 43 44 44 46 47 49 49 49 52 55 57 58 60 60 62 61 58 59
19 17 20 20 21 24 20 25 12 9 15 22 20 25 29 28 25 26 29 30 32 32 31 33 34 37 32 31 37 39 44 47 46 46 46 47 49 50 53 56 56 59 59 61 61 62 60 61 60
26 25 22 24 24 26 21 24 17 5 18 23 30 22 23 19 25 25 24 28 29 31 32 34 36 39 37 40 40 40 41 43 45 46 47 48 50 51 56 56 59 60 60 62 61 61 61 62 62
28 29 27 27 26 23 19 19 8 11 18 24 29 26 27 23 23 25 28 32 34 35 36 37 38 41 40 42 41 41 43 45 47 49 51 52 51 54 57 60 59 62 62 61 60 62 63 62 61
31 29 27 28 22 21 22 25 24 21 26 28 32 33 33 30 33 35 37 39 37 39 41 41 40 41 40 41 45 45 45 47 48 51 52 54 56 56 61 59 62 62 61 60 61 61 59 60 62
27 36 32 34 33 35 31 32 35 34 36 29 31 33 32 33 36 38 41 42 42 39 39 39 39 39 42 44 46 46 46 48 52 54 55 57 58 61 61 59 60 59 59 60 59 60 60 62 62
32 30 35 39 39 40 36 26 12 19 24 29 15 17 26 31 36 37 40 43 44 45 41 40 42 44 46 48 48 48 51 52 55 57 58 59 59 58 58 60 57 57 59 59 62 62 63 65 64
36 44 38 41 40 44 47 44 30 36 40 41 36 26 25 31 34 39 41 44 45 47 41 40 44 46 48 49 50 50 51 52 56 59 58 58 56 57 60 57 57 55 58 60 63 62 63 65 65
48 43 41 45 47 47 50 49 38 36 39 34 33 28 33 38 39 40 43 43 48 51 46 44 49 45 49 49 48 50 54 53 54 55 53 54 54 56 58 58 56 57 63 60 65 64 66 67 67
Wind_Direction
204 172 148 135 157 165 143 212 251 232 242 280 268 286 283 309 294 308 323 311 213 200 208 188 167 179 164 157 155 142 115 102 85 64 57 52 44 38 27 25 19 11 10 11 3 356 348 350 347
168 181 147 135 200 207 184 118 235 242 316 274 286 277 286 317 310 310 302 289 226 225 214 196 179 168 157 147 131 111 95 73 53 40 34 30 23 20 14 4 360 360 358 354 347 344 343 342 339
148 143 126 161 317 307 139 124 187 309 306 290 306 265 280 287 295 299 301 287 238 221 198 186 169 150 142 138 124 108 88 58 41 21 14 5 5 5 359 357 353 348 342 341 340 334 334 336 336
152 150 127 118 202 330 111 117 265 261 233 257 237 267 255 296 306 301 290 250 233 202 186 165 147 146 142 129 125 107 45 17 5 352 347 349 358 354 350 347 340 341 338 338 335 334 337 336 334
144 148 131 103 316 351 291 249 280 271 12 286 286 313 312 316 295 285 266 234 205 179 160 151 154 153 150 154 163 191 301 328 327 334 346 345 342 340 339 339 338 336 332 333 335 335 336 334 333
154 134 133 242 204 254 264 277 227 312 283 289 285 299 296 306 284 253 224 186 171 163 157 161 165 172 180 188 210 268 290 323 329 332 328 329 327 330 342 336 333 334 338 341 338 335 333 330 327
173 149 129 295 163 266 262 254 218 233 273 293 288 285 288 263 254 263 211 177 166 162 168 175 181 191 200 217 247 279 312 321 316 317 320 329 323 333 336 332 332 336 335 334 335 335 332 330 329
177 195 142 259 257 258 256 261 255 256 236 214 264 296 302 224 236 238 209 179 173 178 188 198 207 217 223 244 266 294 315 313 317 311 316 323 320 323 329 326 327 326 331 336 334 331 329 328 327
186 182 89 239 232 257 254 265 258 267 274 277 238 247 240 223 245 221 193 195 198 212 213 216 229 244 267 279 292 304 314 314 306 304 313 316 317 323 313 312 315 320 324 329 330 329 326 324 323
188 165 131 194 234 233 248 256 264 260 265 270 259 254 251 240 238 238 211 212 213 219 220 228 248 259 275 287 291 295 306 301 299 307 315 316 312 311 309 306 307 310 315 321 324 326 324 324 324
216 199 205 221 231 256 253 242 257 262 228 275 285 267 261 251 244 242 231 229 235 228 227 241 242 261 282 283 288 288 296 297 299 305 308 306 311 307 304 299 306 309 313 314 317 318 322 323 320
238 227 237 244 231 237 242 250 243 259 235 234 265 282 275 269 258 251 249 243 235 243 246 247 245 270 299 299 293 287 289 292 294 297 300 307 309 308 305 304 310 312 309 306 305 314 317 320 318
243 243 246 242 249 236 246 254 255 260 262 262 266 267 278 276 273 262 255 252 241 244 256 265 269 273 290 292 283 277 280 292 288 293 300 307 312 311 311 310 310 308 304 303 303 306 313 316 316
249 250 249 248 251 249 248 251 255 259 258 257 266 271 270 271 275 275 269 261 260 258 264 270 267 274 286 291 279 269 276 284 290 296 299 305 310 311 316 314 310 311 309 304 307 311 311 313 314
258 261 258 261 256 255 251 248 255 247 257 259 265 269 262 266 264 271 269 267 266 267 266 270 270 277 282 284 280 274 280 290 293 293 298 302 302 309 309 310 310 312 310 308 308 306 307 314 315
266 269 269 266 262 262 257 254 258 258 252 258 261 269 280 275 271 269 272 270 267 268 269 272 280 277 277 274 278 276 283 288 291 293 296 297 299 302 307 313 311 309 307 310 306 308 311 313 313
288 271 275 262 269 274 270 259 255 254 263 251 265 269 271 276 269 267 266 266 266 266 269 268 273 266 267 267 267 276 285 288 290 293 295 298 301 307 310 311 311 312 312 312 311 309 309 310 310
266 302 297 305 264 275 271 273 251 261 269 257 260 268 270 273 279 270 260 261 264 265 265 266 267 266 269 267 270 280 287 291 292 295 297 298 300 305 309 309 309 310 307 306 305 306 306 307 307
273 270 261 226 218 261 276 276 269 263 258 270 264 260 267 269 274 270 265 262 262 266 265 255 258 267 268 272 281 286 294 294 296 298 298 297 300 305 306 306 306 305 302 301 302 304 305 306 309
283 271 267 257 254 265 276 276 267 268 268 259 267 269 263 268 269 266 267 262 261 266 266 263 264 270 277 284 286 289 292 297 298 299 299 297 298 299 299 301 304 303 298 299 299 303 306 307 308
296 286 275 270 264 269 275 269 264 262 266 259 262 265 271 273 272 268 268 269 267 265 271 278 281 274 276 281 286 289 291 297 295 295 297 294 294 296 298 297 298 298 294 295 302 304 306 307 306
294 290 288 278 276 273 265 280 260 240 276 272 263 260 262 261 262 268 269 274 275 281 285 283 283 283 280 276 284 290 295 296 293 293 291 289 292 294 294 296 297 294 295 300 302 302 302 304 306
300 296 289 289 286 282 279 277 279 250 286 278 269 254 257 262 263 261 270 273 272 274 276 282 284 287 294 291 287 290 294 295 295 297 295 295 293 294 294 296 291 293 297 299 301 301 302 303 304
296 298 293 287 284 282 292 279 275 257 245 236 253 268 271 263 257 264 267 268 271 273 275 276 277 281 288 288 291 294 294 293 294 295 294 293 296 295 297 291 294 297 298 298 300 300 303 302 304
294 296 299 294 293 296 297 283 264 200 254 243 254 273 270 263 260 266 268 270 270 275 276 276 279 281 284 286 290 294 296 296 300 300 297 299 298 296 295 295 298 297 298 298 300 303 304 305 306
304 299 295 286 263 247 258 267 275 268 256 271 273 277 272 271 273 275 280 281 277 277 279 280 281 283 285 287 290 293 295 297 299 298 298 299 299 296 295 297 298 299 298 300 303 305 305 305 310
296 298 298 289 284 279 271 264 278 284 279 264 256 258 269 272 270 271 273 275 277 277 278 280 280 280 283 286 289 292 295 298 299 300 299 298 295 296 297 297 296 296 298 301 305 308 308 311 311
287 283 287 291 290 284 280 278 292 270 268 276 272 273 268 269 271 271 274 274 278 280 277 277 282 283 286 289 290 291 295 300 304 306 299 293 296 295 293 292 293 297 300 303 307 309 311 311 310
293 287 280 286 284 285 282 274 261 255 267 275 284 281 272 268 267 270 270 275 276 275 279 283 285 288 291 292 293 296 299 299 300 300 294 296 294 291 294 295 296 297 300 307 308 309 309 310 311
286 287 279 283 289 289 286 275 276 270 271 279 276 274 276 273 274 271 269 269 276 280 282 285 284 286 290 293 295 296 295 296 294 294 295 293 294 294 293 293 296 299 304 303 307 309 310 311 311